Location: Newark
(36.2350°N, 59.6408°E)
Time: 04:19:52
(UTC+00:00)

ISS - Pass Details

Date: 24 November 2019
Orbit: 411 x 421 km, 51.6° (Epoch: 10 December)

Event Time Altitude Azimuth Distance (km) Brightness Sun altitude
Rises 14:17:21 0° 261° (W) 2,347 1.8 -17.7°
Reaches altitude 10° 14:19:47 10° 278° (W) 1,489 0.1 -18.2°
Maximum altitude 14:22:24 21° 330° (NNW) 998 -1.7 -18.7°
Enters shadow 14:23:30 18° 357° (N) 1,101 -1.8 -18.9°
